{"data":{"norad_id":67341,"epoch":"2026-05-25T01:19:29.500320Z","epoch_age_seconds":69683,"freshness":"FRESH","line1":"1 67341U 26003H   26145.05520255  .00021123  00000+0  77465-3 0  9994","line2":"2 67341  43.0003 155.7443 0001002 261.9292  98.1446 15.27590830 20505","mean_motion":15.2759083,"eccentricity":0.0001002,"inclination_deg":43.0003,"raan_deg":155.7443,"arg_perigee_deg":261.9292,"mean_anomaly_deg":98.1446,"bstar":0.00077465,"rev_number":2050,"period_min":94.2660804006,"perigee_km":482.32917971771,"apogee_km":483.70415491264,"semimajor_km":6861.1536673152,"source":"CELESTRAK","updated_at":"2026-05-25T13:38:21.523408Z"}}